CZ-6A DEB

Satellite information

Favourite Embed

Satellite Type and Status

DEBRISIN ORBIT

Key statistics

Satellite CZ-6A DEB at a glance.

Uptime

970

Days in orbit

Revolutions

≈ 14.6

Per day

Orbit

SSO

Sun Synchronous Orbit

Inclination

98.6

Latest

Satellite identification and parameters

Extended collection of information and parameters for CZ-6A DEB.

Object identification

Identified? True

Debris? True

Object name: CZ-6A DEB

International designator: 2022-151WH

Object number (NORAD): 55216

Object ID (CCSDS): 55216

Country: PEOPLES REPUBLIC OF CHINA (PRC)

Current information (Y/N): Y

RCS size: SMALL

Orbital parameters

Period: 98.847 minutes

Inclination: 98.6247 deg

SMA: 7081.666 km

Apoapsis: 762.002 km

Periapsis: 645.059 km

RAAN: 224.523 deg

Eccentricy: 0.0082568

Argument of periapsis: 289.8557 deg

Mean anomaly: 69.3755 deg

Mean motion: 14.56799018 rev/day

Mean motion (dot): 0.00005471 rev/day2

B* drag term: 0.0011776 1/REarth

Two-line elements (TLE)

Creation date: July 7, 2025, 6:34 p.m.

Reference frame: TEME

Reference center: EARTH

Epoch: July 7, 2025, 2:30 p.m. UTC

TLE line 0: 0 CZ-6A DEB

TLE line 1: 1 55216U 22151WH 25188.60420012 .00005471 00000-0 11776-2 0 9990

TLE line 2: 2 55216 98.6247 224.5230 0082568 289.8557 69.3755 14.56799018134102

Live tracking on map

Real-time ground track for satellite CZ-6A DEB.

In-orbit conjunctions

A list of the most updated potential collisions computed for object CZ-6A DEB.

Target Orbit TCA Probability of collision Miss distance Type
COSMOS 2251 DEB LEO 2024-12-05 23:13:48 0.0003869272 120.0 (m) DEBRIS
THOR BURNER 2A R/B SSO 2024-10-14 06:30:57 0.0001819322 415.0 (m) ROCKET BODY

Associated space launch

Chinese satellite reported for atmospheric/ocean/environmental/spatial parameter research purposes, details TBD.

CZ-6A DEB was lifted into orbit during the mission ‘Long March 6A | Yunhai 3’, on board a Long March 6A space rocket.

The launch took place on Nov. 11, 2022, 10:52 p.m. from Launch Complex 9A.

For more information about the launch, click the button.

Launch to space Long March 6A | Yunhai 3
Long March 6A | Yunhai 3

Agency: N/A

Status: Launch Successful

Launch date: Nov. 11, 2022, 10:52 p.m. UTC

Rocket: Long March 6A

Launch pad: Launch Complex 9A

Location: Taiyuan Satellite Launch Center, People's Republic of China

...

Latest news about this satellite

There are no fresh news available about this satellite. Check back as we update our databases every day.


Newsletter sign-up

Weekly statistics, charts and insights to help you stay on top of the space industry.